Regional Weather Roundup
Issued by NWS

Home | Current Version | Previous Version | Graphics & Text | Print | Product List | Glossary On
Versions: 1 2 3 4 5 6 7 8 9 10 11 12 13 14 15 16 17 18 19 20 21 22 23 24 25 26 27 28 29 30 31 32 33 34 35 36 37 38 39 40 41 42 43 44 45 46 47 48 49 50
395
ASUS43 KLOT 231803
RWRIL

ILLINOIS REGIONAL WEATHER ROUNDUP
NATIONAL WEATHER SERVICE CHICAGO/ROMEOVILLE IL
1200 PM CST THU NOV 23 2017

NOTE: "FAIR" INDICATES FEW OR NO CLOUDS BELOW 12,000 FEET WITH NO
SIGNIFICANT WEATHER AND/OR OBSTRUCTIONS TO VISIBILITY.

* THESE STATIONS ARE NOT UNDER NWS QUALITY CONTROL. THEY ALSO MAY NOT
  REPORT WEATHER SUCH AS PRECIPITATION OR FOG.

ILZ001-002-007-009-015-016-024-231900-
NORTHWEST ILLINOIS

CITY           SKY/WX    TMP DP  RH WIND       PRES   REMARKS
MOLINE         SUNNY     45  23  42 NW6       29.94F
6HR MIN TEMP:  31; 6HR MAX TEMP:  45;

STERLING*      SUNNY     42  24  49 CALM      29.95F
SAVANNA*       SUNNY     42  23  47 SW3       29.94F
$$

ILZ003-004-008-010-011-017-018-231900-
NORTH CENTRAL ILLINOIS

CITY           SKY/WX    TMP DP  RH WIND       PRES   REMARKS
ROCKFORD       SUNNY     44  22  41 VRB6      29.95F
6HR MIN TEMP:  30; 6HR MAX TEMP:  44;

FREEPORT*      SUNNY     40  23  49 W5        29.94F
ROCHELLE*      SUNNY     41  25  52 W9        29.94F
DE KALB*       SUNNY     41  24  51 SW10      29.94F
PERU*          SUNNY     42  22  45 SW8       29.96F
$$

ILZ005-006-012>014-019>023-231900-
NORTHEAST ILLINOIS

CITY           SKY/WX    TMP DP  RH WIND       PRES   REMARKS
CHICAGO-OHARE  MOSUNNY   43  23  45 SW10      29.94F
6HR MIN TEMP:  33; 6HR MAX TEMP:  43;

CHICAGO-MIDWAY NOT AVBL
AURORA         SUNNY     42  25  50 SW10      29.96F
6HR MIN TEMP:  31; 6HR MAX TEMP:  42;

LANSING*       SUNNY     43  28  53 SW16      29.97F
JOLIET*        SUNNY     45  25  44 SW8       29.96F
WAUKEGAN       SUNNY     42  22  44 SW12      29.92F
6HR MIN TEMP:  32; 6HR MAX TEMP:  43;

DUPAGE AIRPORT SUNNY     42  24  49 W13       29.94F
6HR MIN TEMP:  30; 6HR MAX TEMP:  42;

KANKAKEE*      SUNNY     44  25  46 SW14      29.99F
WHEELING       SUNNY     43  23  45 SW9       29.95F
6HR MIN TEMP:  33; 6HR MAX TEMP:  43;

MORRIS*        SUNNY     44  24  45 SW10      29.96F
ROMEOVILLE*    SUNNY     44  25  48 SW12      29.95F
NORTHERLY ISL    N/A     43  19  38 S12         N/A
$$

LMZ740>746-231900-
SOUTHERN LAKE MICHIGAN

STATION/POSITION SKY/WX   TEMP    WIND        PRES    VSBY  WAVE
                          AIR SEA DIR/SP/G                  HT/PER
                          (F)     (DEG/KT/KT) (MB)    (MI)  (FT/S)
SOUTHERN BUOY              39 47  250/ 17/ 21 1015.2          4/ 5
HARRISON CRIB              42     220/ 12/ 17   N/A
BURNHAM HARBOR             43     180/  9/ 14   N/A
CALUMET HARBOR             42     200/ 12/ 17 1014.1F
BURNS HARBOR               42     220/ 13/ 17 1015.6F
MICHIGAN CITY              41     180/ 13/ 17   N/A
$$

ILZ025>027-034>036-040-047-049-050-058-095>099-231900-
WEST-CENTRAL ILLINOIS

CITY           SKY/WX    TMP DP  RH WIND       PRES   REMARKS
QUINCY         SUNNY     47  26  44 SW8       29.97F
GALESBURG*     SUNNY     46  28  49 S3        29.97S
MACOMB*        SUNNY     45  26  46 W8        29.99F
JACKSONVILLE*  SUNNY     47  24  40 SW8       29.98F
PITTSFIELD*    SUNNY     48  26  42 W7        29.99F
$$

ILZ028>032-037-038-041>044-048-051>054-059>061-231900-
CENTRAL ILLINOIS

CITY           SKY/WX    TMP DP  RH WIND       PRES   REMARKS
PONTIAC        SUNNY     46  26  45 SW12      29.98F
BLOOMINGTON    SUNNY     45  25  45 SW15      29.97F
DECATUR        SUNNY     47  26  44 S13G20    30.00F
PEORIA         SUNNY     45  23  42 CALM      29.97F
6HR MIN TEMP:  31; 6HR MAX TEMP:  45;

LACON*         SUNNY     45  24  44 SW6       29.96F
LINCOLN*       SUNNY     48  28  45 SW6       29.98F
SPRINGFIELD    SUNNY     49  25  39 SW10      29.99F
6HR MIN TEMP:  32; 6HR MAX TEMP:  49;

TAYLORVILLE    SUNNY     47  26  43 S15       30.00F
6HR MIN TEMP:  30; 6HR MAX TEMP:  47;

$$

ILZ033-039-045-046-055>057-062-063-231900-
EAST-CENTRAL ILLINOIS

CITY           SKY/WX    TMP DP  RH WIND       PRES   REMARKS
CHAMPAIGN      SUNNY     46  25  43 S15       30.01F
DANVILLE*      SUNNY     42  26  54 S12       29.99F
RANTOUL*       SUNNY     46  28  48 S12G18    29.99F
MATTOON        SUNNY     43  26  51 S8        30.01F
PARIS*         SUNNY     43  28  55 S9        30.05F
$$

ILZ079-100>102-231900-
SOUTHWEST ILLINOIS

CITY           SKY/WX    TMP DP  RH WIND       PRES   REMARKS
ALTON          SUNNY     45  27  49 S10       30.01F
BELLEVILLE     SUNNY     51  26  37 S9        30.01F
CAHOKIA*       SUNNY     50  22  33 SW8       30.01F
SPARTA*        SUNNY     48  28  45 S8        30.05F
$$

ILZ064>066-069>071-074>076-080>082-084>086-088>090-092>094-231900-
SOUTH-CENTRAL ILLINOIS

CITY           SKY/WX    TMP DP  RH WIND       PRES   REMARKS
CARBONDALE     SUNNY     49  24  37 SW9       30.08F
6HR MIN TEMP:  21; 6HR MAX TEMP:  49;

CAIRO*         SUNNY     45  26  47 SW6       30.11F
EFFINGHAM*     SUNNY     47  26  43 S9        30.05F
MARION         SUNNY     50  25  37 SW9       30.09F
MT. VERNON     SUNNY     47  28  47 S9        30.06F
CENTRALIA*     SUNNY     49  29  46 S13       30.03F
SALEM*         SUNNY     50  24  36 SW9       30.04F
METROPOLIS*    SUNNY     47  25  42 W6        30.11F
$$

ILZ067-068-072-073-078-083-087-091-231900-
SOUTHEAST ILLINOIS

CITY           SKY/WX    TMP DP  RH WIND       PRES   REMARKS
LAWRENCEVILLE  MOSUNNY   44  26  49 S9        30.08F
FLORA*         SUNNY     48  27  45 S8        30.06F
FAIRFIELD*     SUNNY     46  25  44 SW3       30.06F
HARRISBURG*    SUNNY     48  26  42 SW6       30.09F
ROBINSON*      PTSUNNY   43  24  46 S5        30.08F
CARMI*         MOSUNNY   45  26  47 S8        30.08F
$$

ABBREVIATIONS USED IN REMARKS
   TC - TEMPERATURE IN CELSIUS
  WCI - WIND CHILL INDEX
   HX - HEAT INDEX
  VSB - VISIBILITY
$$





USA.gov is the U.S. government's official web portal to all federal, state and local government web resources and services.